Regional Weather Roundup
Issued by NWS

Home | Current Version | Previous Version | Graphics & Text | Print | Product List | Glossary On
Versions: 1 2 3 4 5 6 7 8 9 10 11 12 13 14 15 16 17 18 19 20 21 22 23 24 25 26 27 28 29 30 31 32 33 34 35 36 37 38 39 40 41 42 43 44 45 46 47 48 49 50
000
ASUS43 KOAX 260610
RWRNE

WEATHER ROUNDUP FOR NEBRASKA
NATIONAL WEATHER SERVICE OMAHA NE
100 AM CDT TUE MAY 26 2015

NOTES: SATELLITE DATA IS BEING USED TO AUGMENT CLOUD COVER ABOVE
       12000 FEET.
       "FAIR" INDICATES FEW OR NO CLOUDS BELOW 12,000 FEET WITH NO
       SIGNIFICANT WEATHER AND/OR OBSTRUCTIONS TO VISIBILITY.

  * THESE STATIONS DO NOT REPORT WEATHER SUCH AS RAIN...SNOW OR FOG.

NEZ001>004-019>022-054>056-260700-
NEBRASKA PANHANDLE

CITY           SKY/WX    TMP DP  RH WIND       PRES   REMARKS
SCOTTSBLUFF    MOCLDY    49  48  97 NW6       29.96S
6HR MIN TEMP:  49; 6HR MAX TEMP:  56; 6HR PCP:  0.01;

ALLIANCE       MOCLDY    50  48  93 NW6       29.94S
6HR MIN TEMP:  48; 6HR MAX TEMP:  59;

CHADRON        CLOUDY    54  53  97 N3        29.95S
6HR MIN TEMP:  54; 6HR MAX TEMP:  59; 6HR PCP: TRACE;

KIMBALL          N/A    N/A N/A N/A MISG        N/A
SIDNEY         PTCLDY    47  45  93 NW7       29.97R
6HR MIN TEMP:  47; 6HR MAX TEMP:  56;

$$

NEZ057>060-069>072-079>082-260700-
SOUTHWEST NEBRASKA

CITY           SKY/WX    TMP DP  RH WIND       PRES   REMARKS
NORTH PLATTE   CLEAR     50  48  93 W6        29.88F
6HR MIN TEMP:  50; 6HR MAX TEMP:  66;

IMPERIAL       MOCLDY    53  49  86 NW8       29.92R
6HR MIN TEMP:  52; 6HR MAX TEMP:  62;

LEXINGTON      MOCLDY    59  55  88 N10       29.84R
MCCOOK         PTCLDY    55  51  86 NW12      29.87R
6HR MIN TEMP:  55; 6HR MAX TEMP:  70;

OGALLALA       PTCLDY    51  50  97 CALM      29.93R
$$

NEZ005>010-023>029-035>040-094-260700-
NORTH CENTRAL NEBRASKA

CITY           SKY/WX    TMP DP  RH WIND       PRES   REMARKS
VALENTINE      CLOUDY    55  53  93 N7        29.90S
6HR MIN TEMP:  55; 6HR MAX TEMP:  61;

AINSWORTH      LGT RAIN  56  56  99 N7        29.88S
BROKEN BOW     CLOUDY    58  55  90 N12       29.83S
6HR MIN TEMP:  58; 6HR MAX TEMP:  71; 6HR PCP:  0.01;

O`NEILL        CLOUDY    59  58  99 N8        29.84S
ORD            CLOUDY    59  55  87 N7        29.81R
6HR MIN TEMP:  58; 6HR MAX TEMP:  74; 6HR PCP:  0.01;

THEDFORD       CLOUDY    56  54  93 N9        29.90S
$$

NEZ041-046>049-061>064-073>077-083>087-260700-
SOUTH CENTRAL NEBRASKA

CITY           SKY/WX    TMP DP  RH WIND       PRES   REMARKS
GRAND ISLAND   CLOUDY    59  57  93 NE3       29.78S
6HR MIN TEMP:  58; 6HR MAX TEMP:  73; 6HR PCP:  0.02;

AURORA         CLOUDY    60  58  93 NE10      29.78S
HASTINGS       CLOUDY    61  54  77 W8        29.77F
6HR MIN TEMP:  61; 6HR MAX TEMP:  75; 6HR PCP:  0.02;

HEBRON         CLOUDY    60  55  82 SE6       29.79S
HOLDREGE       CLOUDY    57  50  76 NW8       29.81R
KEARNEY *      CLOUDY    61  54  77 NW9       29.80S
YORK           CLOUDY    59  55  88 N14       29.79S
$$

NEZ011>018-030>034-042>045-260700-
NORTHEAST NEBRASKA

CITY           SKY/WX    TMP DP  RH WIND       PRES   REMARKS
NORFOLK        CLOUDY    61  55  81 N6        29.79F
6HR MIN TEMP:  61; 6HR MAX TEMP:  76;

ALBION         CLOUDY    57  56  94 NW7       29.79S
BLAIR          CLOUDY    63  57  82 SE7       29.78S
COLUMBUS *     CLOUDY   N/A N/A N/A MISG        N/A
FREMONT        CLOUDY    62  60  92 SE5       29.78S
TEKAMAH        CLOUDY    63  61  93 S7        29.76F
6HR MIN TEMP:  63; 6HR MAX TEMP:  80; 6HR PCP:  0.27;

WAYNE          CLOUDY    60  56  87 NE3       29.80F
$$

NEZ050>053-065>068-078-088>093-260700-
SOUTHEAST NEBRASKA

CITY           SKY/WX    TMP DP  RH WIND       PRES   REMARKS
LINCOLN        CLOUDY    63  57  81 S9        29.78F
6HR MIN TEMP:  62; 6HR MAX TEMP:  74;

OMAHA EPPLEY   CLOUDY    63  59  87 SE8       29.78F
6HR MIN TEMP:  63; 6HR MAX TEMP:  79;

BEATRICE       CLOUDY    61  56  85 S5        29.80R
FALLS CITY     LGT RAIN  62  58  86 VRB3      29.77F
6HR MIN TEMP:  61; 6HR MAX TEMP:  65; 6HR PCP:  0.54;

NEBRASKA CITY  CLOUDY    59  59  99 CALM      29.80R
PLATTSMOUTH    CLOUDY    60  57  89 SE5       29.79F
$$

NEZ044-045-051>053-067-260700-
OMAHA AREA

CITY           SKY/WX    TMP DP  RH WIND       PRES   REMARKS
OMAHA EPPLEY   CLOUDY    63  59  87 SE8       29.78F
6HR MIN TEMP:  63; 6HR MAX TEMP:  79;

BLAIR          CLOUDY    63  57  82 SE7       29.78S
FREMONT        CLOUDY    62  60  92 SE5       29.78S
MILLARD        CLOUDY    63  59  88 SE3       29.78F
OFFUTT AFB     CLOUDY    61  59  95 E5        29.78F
PLATTSMOUTH    CLOUDY    60  57  89 SE5       29.79F
WAHOO          FAIR      61  59  91 SE6       29.78S
$$


USA.gov is the U.S. government's official web portal to all federal, state and local government web resources and services.